SCP
0 -0 -1 -1 -1 -0 -0 -0 -0 -0 -0 -0 -0 -0 -0 -0 -0 -0 -0 0 -0 -0 -0 -0 -0 -0 0 0 0 0 -0 0
0 0 -1 -1 -1 -1 -0 -0 -0 -0 -0 -0 -0 -0 -0 -0 -0 0 -0 -0 -0 0 0 0 0 0 0 -0 0 0 0 -0
-0 0 -0 -1 -1 -0 -0 -0 -0 -0 -0 -0 -0 -0 -0 -0 -0 -0 -0 -0 -0 -0 -0 -0 -0 -0 -0 -0 -0 0 -0 -0
0 0 0 0 -0 -0 -0 -0 -0 -0 -0 -0 -0 -0 -0 -0 -0 0 -0 -0 -0 -0 -0 -0 -0 -0 -0 -0 -0 -0 0 -0
0 0 0 0 0 0 0 -0 -0 -0 -0 -0 -0 -0 -0 -0 -0 -0 -0 -0 -0 -0 -0 -0 -0 -0 -0 -0 -0 -0 -0 -0
0 0 0 0 0 0 -0 -0 -0 -0 -0 -0 -0 -0 0 -0 -0 -0 -0 -0 -0 -0 -0 -0 -0 -0 -0 -0 -0 0 -0 0
-0 -0 0 0 -0 -0 -0 -0 0 0 0 -0 -0 -0 -0 -0 -0 -0 -0 -0 -0 -0 -0 -0 -0 -0 -0 -0 0 0 0 0
-0 0 0 0 0 0 0 0 0 0 0 0 -0 -0 -0 -0 -0 -0 -0 -0 -0 -0 -0 -0 -0 -0 -0 -0 0 0 0 0
0 0 0 0 0 0 0 0 0 0 0 0 -0 -0 -0 -0 -0 -0 -0 -0 -0 -0 -0 -0 0 0 0 0 0 0 0 0
-0 0 -0 0 0 0 0 0 0 0 0 0 -0 -0 -0 -0 -0 -0 -0 -0 -0 -0 -0 0 0 0 0 0 0 0 0 0
0 0 0 0 0 0 0 0 0 0 0 0 0 -0 0 -0 -0 -0 -0 -0 -0 -0 0 0 0 0 0 0 0 0 0 0
0 -0 0 0 0 0 0 0 0 0 0 0 0 0 0 0 0 -0 -0 -0 0 0 0 0 0 0 0 0 0 0 0 0
0 0 0 0 0 0 0 0 0 -0 0 0 0 0 0 0 0 0 -0 0 0 0 0 0 0 0 0 0 0 0 0 0
0 0 0 0 0 0 0 0 0 0 0 0 0 0 0 0 0 0 0 -0 0 0 0 0 0 0 0 0 0 0 0 0
0 0 0 0 0 0 0 0 0 0 0 0 0 0 0 0 0 0 0 0 0 0 0 0 0 0 0 0 0 0 0 0
0 0 0 0 0 0 0 0 0 0 0 0 0 0 0 0 0 0 0 0 0 0 0 0 0 0 0 0 1 0 0 0
0 0 0 0 0 0 1 1 1 1 0 0 0 0 0 0 0 0 0 0 0 0 0 0 0 0 0 0 0 0 0 0
0 0 0 0 0 0 0 0 1 1 0 0 0 0 0 0 0 0 0 0 0 0 0 0 0 0 0 0 0 0 0 0
0 0 0 0 0 0 0 0 0 0 0 0 0 0 0 0 0 0 0 0 0 0 0 0 0 0 0 0 0 0 0 0
Wind_Speed_500mb
57 54 52 54 58 55 48 41 35 37 41 41 43 42 41 39 36 36 35 35 33 30 31 37 39 41 40 36 32 30 26 24
56 54 52 54 58 56 50 42 36 35 40 40 41 40 40 38 35 35 35 31 32 32 32 38 42 42 35 27 21 20 14 16
54 53 53 55 58 56 50 44 37 37 40 40 38 37 37 37 34 31 31 30 33 33 34 39 41 38 31 25 20 14 15 11
52 54 56 58 58 54 50 44 39 37 41 40 37 37 35 34 32 30 31 34 36 35 36 38 39 33 29 23 15 13 15 16
49 51 56 59 60 57 51 46 40 38 42 40 37 35 34 32 31 32 34 34 37 35 35 36 35 30 26 20 17 16 11 16
51 50 50 54 58 58 54 49 42 39 43 41 40 37 34 32 32 32 35 35 35 34 32 32 30 28 23 22 20 12 13 17
55 55 53 53 56 58 57 53 47 43 46 44 41 39 35 33 32 32 34 35 33 32 31 28 26 28 24 24 21 19 15 19
50 52 52 52 53 56 59 55 50 47 48 46 41 38 36 34 34 33 33 34 33 31 31 29 28 28 26 24 23 25 22 24
51 47 48 51 52 52 52 54 52 49 50 50 45 41 40 37 35 33 32 31 31 30 29 28 28 28 26 27 24 22 23 26
54 49 46 47 49 50 50 50 51 49 50 50 47 43 41 39 36 34 31 30 29 29 30 30 30 31 30 31 29 27 29 32
57 52 49 46 45 46 48 47 46 45 45 49 48 44 41 39 38 35 31 31 27 27 30 31 32 35 36 33 30 34 31 36
60 53 50 47 45 39 45 43 42 39 39 44 47 45 42 41 41 40 33 31 27 23 20 22 34 38 41 38 34 33 35 41
64 62 55 49 44 35 40 39 34 35 28 32 40 46 43 40 42 40 37 38 28 27 30 30 37 41 42 42 45 41 39 38
55 60 58 54 44 22 39 38 31 36 33 25 26 40 42 41 42 46 41 36 29 37 34 36 40 44 49 51 48 47 46 47
46 52 52 58 53 39 35 42 37 44 38 32 27 34 32 35 39 44 53 48 44 41 43 47 46 46 44 46 50 55 57 56
38 46 50 60 59 55 53 48 51 48 49 48 43 43 45 46 52 57 59 66 61 58 55 52 54 54 47 49 55 60 63 60
29 32 43 48 59 58 49 46 51 54 51 53 54 54 53 52 54 60 63 71 76 75 69 58 48 47 48 54 56 61 57 58
26 34 34 35 40 55 48 50 45 42 40 45 49 50 52 47 45 54 53 54 61 78 85 77 55 34 27 60 72 73 38 38
19 22 29 34 39 47 46 43 46 45 48 52 52 47 51 55 53 57 60 65 59 62 77 70 66 55 71 64 60 95 83 42
Wind_Direction_500mb
171 172 175 176 175 174 172 169 164 160 156 155 152 149 149 149 145 143 139 135 129 132 135 143 138 133 129 122 117 118 114 104
171 172 175 176 175 175 174 171 167 163 161 159 156 153 153 151 148 150 149 148 139 139 139 145 144 139 135 134 129 123 120 110
173 172 174 175 176 176 176 174 172 168 166 165 163 160 158 156 155 155 156 148 145 143 141 148 149 145 146 142 137 141 131 119
176 173 174 175 177 179 179 178 176 174 170 169 168 164 164 164 164 161 155 150 148 144 143 145 151 154 159 158 163 167 133 126
178 179 180 179 181 182 183 183 182 177 175 171 170 170 171 173 173 169 163 161 154 152 150 151 158 166 175 174 173 180 177 150
182 185 187 187 188 187 187 187 186 182 178 176 174 174 173 173 171 172 170 169 165 162 162 162 167 175 187 176 187 200 192 154
184 186 191 193 194 193 193 193 191 188 184 182 181 179 174 174 173 173 176 176 176 173 173 175 183 186 193 193 195 204 193 168
184 188 194 197 197 198 199 199 198 195 191 187 187 186 183 181 179 179 182 184 188 187 185 190 198 204 198 208 203 200 212 204
189 192 194 199 203 202 203 203 204 200 196 193 191 191 193 193 189 187 189 191 194 198 199 204 210 221 208 207 207 217 222 205
196 195 198 199 208 208 204 204 205 204 202 199 197 197 198 200 201 199 195 197 199 207 212 217 219 222 220 208 211 212 226 224
200 201 200 200 206 213 209 209 208 207 207 205 205 204 206 206 205 203 203 206 208 216 227 232 229 223 229 218 218 217 230 238
210 206 204 202 201 209 214 213 213 210 210 212 212 212 214 215 215 214 218 218 221 231 239 244 241 231 229 233 235 227 231 229
216 210 207 202 198 210 211 207 202 201 207 217 222 221 220 222 225 226 226 225 235 246 249 258 258 243 237 242 248 236 229 238
218 211 212 207 197 204 214 208 211 221 215 222 232 231 228 230 229 230 234 233 245 247 255 260 265 245 249 246 243 233 230 227
209 213 211 217 216 212 212 215 225 233 233 233 236 228 225 228 230 233 233 238 243 247 251 258 266 256 256 257 241 240 229 226
192 211 208 215 223 224 225 222 231 238 244 239 234 231 231 238 246 249 245 240 241 241 241 246 254 259 257 254 243 235 225 225
166 185 204 212 217 223 225 225 234 240 240 239 243 243 249 247 251 252 253 252 248 246 241 240 248 257 249 239 231 230 228 225
173 178 181 181 203 215 221 228 236 239 238 238 241 239 243 248 253 253 256 258 259 254 244 243 246 298 307 253 242 236 227 220
188 182 198 208 203 206 217 226 238 245 245 250 251 254 256 257 264 271 271 272 269 259 256 253 242 264 287 268 292 246 236 223
Wind_Speed_850mb
57 54 52 54 58 55 48 41 35 37 41 41 43 42 41 39 36 36 35 35 33 30 31 37 39 41 40 36 32 30 26 24
56 54 52 54 58 56 50 42 36 35 40 40 41 40 40 38 35 35 35 31 32 32 32 38 42 42 35 27 21 20 14 16
54 53 53 55 58 56 50 44 37 37 40 40 38 37 37 37 34 31 31 30 33 33 34 39 41 38 31 25 20 14 15 11
52 54 56 58 58 54 50 44 39 37 41 40 37 37 35 34 32 30 31 34 36 35 36 38 39 33 29 23 15 13 15 16
49 51 56 59 60 57 51 46 40 38 42 40 37 35 34 32 31 32 34 34 37 35 35 36 35 30 26 20 17 16 11 16
51 50 50 54 58 58 54 49 42 39 43 41 40 37 34 32 32 32 35 35 35 34 32 32 30 28 23 22 20 12 13 17
55 55 53 53 56 58 57 53 47 43 46 44 41 39 35 33 32 32 34 35 33 32 31 28 26 28 24 24 21 19 15 19
50 52 52 52 53 56 59 55 50 47 48 46 41 38 36 34 34 33 33 34 33 31 31 29 28 28 26 24 23 25 22 24
51 47 48 51 52 52 52 54 52 49 50 50 45 41 40 37 35 33 32 31 31 30 29 28 28 28 26 27 24 22 23 26
54 49 46 47 49 50 50 50 51 49 50 50 47 43 41 39 36 34 31 30 29 29 30 30 30 31 30 31 29 27 29 32
57 52 49 46 45 46 48 47 46 45 45 49 48 44 41 39 38 35 31 31 27 27 30 31 32 35 36 33 30 34 31 36
60 53 50 47 45 39 45 43 42 39 39 44 47 45 42 41 41 40 33 31 27 23 20 22 34 38 41 38 34 33 35 41
64 62 55 49 44 35 40 39 34 35 28 32 40 46 43 40 42 40 37 38 28 27 30 30 37 41 42 42 45 41 39 38
55 60 58 54 44 22 39 38 31 36 33 25 26 40 42 41 42 46 41 36 29 37 34 36 40 44 49 51 48 47 46 47
46 52 52 58 53 39 35 42 37 44 38 32 27 34 32 35 39 44 53 48 44 41 43 47 46 46 44 46 50 55 57 56
38 46 50 60 59 55 53 48 51 48 49 48 43 43 45 46 52 57 59 66 61 58 55 52 54 54 47 49 55 60 63 60
29 32 43 48 59 58 49 46 51 54 51 53 54 54 53 52 54 60 63 71 76 75 69 58 48 47 48 54 56 61 57 58
26 34 34 35 40 55 48 50 45 42 40 45 49 50 52 47 45 54 53 54 61 78 85 77 55 34 27 60 72 73 38 38
19 22 29 34 39 47 46 43 46 45 48 52 52 47 51 55 53 57 60 65 59 62 77 70 66 55 71 64 60 95 83 42
Wind_Direction_850mb
171 172 175 176 175 174 172 169 164 160 156 155 152 149 149 149 145 143 139 135 129 132 135 143 138 133 129 122 117 118 114 104
171 172 175 176 175 175 174 171 167 163 161 159 156 153 153 151 148 150 149 148 139 139 139 145 144 139 135 134 129 123 120 110
173 172 174 175 176 176 176 174 172 168 166 165 163 160 158 156 155 155 156 148 145 143 141 148 149 145 146 142 137 141 131 119
176 173 174 175 177 179 179 178 176 174 170 169 168 164 164 164 164 161 155 150 148 144 143 145 151 154 159 158 163 167 133 126
178 179 180 179 181 182 183 183 182 177 175 171 170 170 171 173 173 169 163 161 154 152 150 151 158 166 175 174 173 180 177 150
182 185 187 187 188 187 187 187 186 182 178 176 174 174 173 173 171 172 170 169 165 162 162 162 167 175 187 176 187 200 192 154
184 186 191 193 194 193 193 193 191 188 184 182 181 179 174 174 173 173 176 176 176 173 173 175 183 186 193 193 195 204 193 168
184 188 194 197 197 198 199 199 198 195 191 187 187 186 183 181 179 179 182 184 188 187 185 190 198 204 198 208 203 200 212 204
189 192 194 199 203 202 203 203 204 200 196 193 191 191 193 193 189 187 189 191 194 198 199 204 210 221 208 207 207 217 222 205
196 195 198 199 208 208 204 204 205 204 202 199 197 197 198 200 201 199 195 197 199 207 212 217 219 222 220 208 211 212 226 224
200 201 200 200 206 213 209 209 208 207 207 205 205 204 206 206 205 203 203 206 208 216 227 232 229 223 229 218 218 217 230 238
210 206 204 202 201 209 214 213 213 210 210 212 212 212 214 215 215 214 218 218 221 231 239 244 241 231 229 233 235 227 231 229
216 210 207 202 198 210 211 207 202 201 207 217 222 221 220 222 225 226 226 225 235 246 249 258 258 243 237 242 248 236 229 238
218 211 212 207 197 204 214 208 211 221 215 222 232 231 228 230 229 230 234 233 245 247 255 260 265 245 249 246 243 233 230 227
209 213 211 217 216 212 212 215 225 233 233 233 236 228 225 228 230 233 233 238 243 247 251 258 266 256 256 257 241 240 229 226
192 211 208 215 223 224 225 222 231 238 244 239 234 231 231 238 246 249 245 240 241 241 241 246 254 259 257 254 243 235 225 225
166 185 204 212 217 223 225 225 234 240 240 239 243 243 249 247 251 252 253 252 248 246 241 240 248 257 249 239 231 230 228 225
173 178 181 181 203 215 221 228 236 239 238 238 241 239 243 248 253 253 256 258 259 254 244 243 246 298 307 253 242 236 227 220
188 182 198 208 203 206 217 226 238 245 245 250 251 254 256 257 264 271 271 272 269 259 256 253 242 264 287 268 292 246 236 223